Time,TemperatureF,DewpointF,PressureIn,WindDirection,WindDirectionDegrees,WindSpeedMPH,WindSpeedGustMPH,Humidity,HourlyPrecipIn,Conditions,Clouds,dailyrainin,SolarRadiationWatts/m^2,SoftwareType,DateUTC
2013-03-20 00:00:00,27.1,18.3,30.10,West,259,11.5,11.5,69,0.00,CLR,CLR,0.00,0.0,WeatherDisplay:10.37,2013-03-20 04:00:00,
2013-03-20 00:01:00,27.1,18.3,30.10,WNW,284,11.0,40.0,69,21.95,,---,0.00,,VWS V13.01,2013-03-20 04:01:00,
2013-03-20 00:06:00,27.0,18.2,30.10,WNW,286,5.0,40.0,69,21.95,,---,0.00,,VWS V13.01,2013-03-20 04:06:00,
2013-03-20 00:11:00,27.0,18.2,30.10,WNW,302,11.5,11.5,69,0.00,CLR,CLR,0.00,0.0,WeatherDisplay:10.37,2013-03-20 04:11:00,
2013-03-20 00:16:00,26.9,18.4,30.10,West,269,6.0,40.0,70,21.95,,---,0.00,,VWS V13.01,2013-03-20 04:16:00,
2013-03-20 00:21:00,26.8,18.3,30.10,West,276,7.0,40.0,70,21.95,,---,0.00,,VWS V13.01,2013-03-20 04:21:00,
2013-03-20 00:26:00,26.8,18.0,30.10,West,263,13.8,13.8,69,0.00,CLR,CLR,0.00,0.0,WeatherDisplay:10.37,2013-03-20 04:26:00,
2013-03-20 00:31:00,26.7,17.9,30.10,West,275,10.0,40.0,69,21.95,,---,0.00,,VWS V13.01,2013-03-20 04:31:00,
2013-03-20 00:36:00,26.6,17.8,30.10,West,264,5.0,40.0,69,21.95,,---,0.00,,VWS V13.01,2013-03-20 04:36:00,
2013-03-20 00:42:00,26.5,17.7,30.10,West,261,10.0,40.0,69,21.95,,---,0.00,,VWS V13.01,2013-03-20 04:42:00,
2013-03-20 00:47:00,26.4,17.6,30.10,WSW,249,3.0,40.0,69,21.95,,---,0.00,,VWS V13.01,2013-03-20 04:47:00,
2013-03-20 00:52:00,26.3,17.5,30.10,West,279,6.9,6.9,69,0.00,CLR,CLR,0.00,0.0,WeatherDisplay:10.37,2013-03-20 04:52:00,
2013-03-20 00:57:00,26.2,17.4,30.10,WNW,298,4.0,40.0,69,21.95,,---,0.00,,VWS V13.01,2013-03-20 04:57:00,
2013-03-20 01:02:00,26.2,17.4,30.09,WSW,252,12.7,12.7,69,0.00,CLR,CLR,0.00,0.0,WeatherDisplay:10.37,2013-03-20 05:02:00,
2013-03-20 01:07:00,26.1,17.0,30.10,West,263,3.0,40.0,68,21.95,,---,0.00,,VWS V13.01,2013-03-20 05:07:00,
2013-03-20 01:12:00,26.1,17.0,30.10,WSW,254,16.1,16.1,68,0.00,CLR,CLR,0.00,0.0,WeatherDisplay:10.37,2013-03-20 05:12:00,
2013-03-20 01:17:00,26.1,17.0,30.10,WNW,282,4.0,40.0,68,21.95,,---,0.00,,VWS V13.01,2013-03-20 05:17:00,
2013-03-20 01:22:00,26.0,16.9,30.09,WNW,300,11.0,40.0,68,21.95,,---,0.00,,VWS V13.01,2013-03-20 05:22:00,
2013-03-20 01:27:00,26.0,16.9,30.09,West,277,5.0,40.0,68,21.95,,---,0.00,,VWS V13.01,2013-03-20 05:27:00,
2013-03-20 01:32:00,25.9,16.8,30.09,West,276,8.0,40.0,68,21.95,,---,0.00,,VWS V13.01,2013-03-20 05:32:00,
2013-03-20 01:37:00,26.0,16.9,30.09,West,281,7.0,40.0,68,21.95,,---,0.00,,VWS V13.01,2013-03-20 05:37:00,
2013-03-20 01:42:00,25.9,16.8,30.09,WSW,256,12.7,12.7,68,0.00,CLR,CLR,0.00,0.0,WeatherDisplay:10.37,2013-03-20 05:42:00,
2013-03-20 01:47:00,25.8,17.0,30.09,SW,231,8.0,40.0,69,21.95,,---,0.00,,VWS V13.01,2013-03-20 05:47:00,
2013-03-20 01:52:00,25.9,16.8,30.09,West,272,7.0,40.0,68,21.95,,---,0.00,,VWS V13.01,2013-03-20 05:52:00,
2013-03-20 01:57:00,25.8,17.0,30.09,West,273,5.8,5.8,69,0.00,CLR,CLR,0.00,0.0,WeatherDisplay:10.37,2013-03-20 05:57:00,
2013-03-20 02:02:00,25.8,17.0,30.08,West,273,4.0,40.0,69,21.95,,---,0.00,,VWS V13.01,2013-03-20 06:02:00,
2013-03-20 02:07:00,25.8,16.7,30.08,West,273,3.0,40.0,68,21.95,,---,0.00,,VWS V13.01,2013-03-20 06:07:00,
2013-03-20 02:12:00,25.8,16.7,30.08,WSW,248,7.0,40.0,68,21.95,,---,0.00,,VWS V13.01,2013-03-20 06:12:00,
2013-03-20 02:18:00,25.8,16.7,30.08,WNW,288,3.0,40.0,68,21.95,,---,0.00,,VWS V13.01,2013-03-20 06:18:00,
2013-03-20 02:23:00,25.7,17.0,30.08,West,270,3.0,40.0,69,21.95,,---,0.00,,VWS V13.01,2013-03-20 06:23:00,
2013-03-20 02:28:00,25.7,16.6,30.08,West,277,11.5,11.5,68,0.00,CLR,CLR,0.00,0.0,WeatherDisplay:10.37,2013-03-20 06:28:00,
2013-03-20 02:33:00,25.7,17.0,30.08,West,261,3.0,40.0,69,21.95,,---,0.00,,VWS V13.01,2013-03-20 06:33:00,
2013-03-20 02:38:00,25.6,16.9,30.08,West,259,5.0,40.0,69,21.95,,---,0.00,,VWS V13.01,2013-03-20 06:38:00,
2013-03-20 02:43:00,25.5,16.8,30.08,WNW,286,7.0,40.0,69,21.95,,---,0.00,,VWS V13.01,2013-03-20 06:43:00,
2013-03-20 02:48:00,25.6,16.8,30.07,WSW,244,5.8,5.8,69,0.00,CLR,CLR,0.00,0.0,WeatherDisplay:10.37,2013-03-20 06:48:00,
2013-03-20 02:53:00,25.5,16.7,30.07,SW,217,2.0,2.0,69,0.00,CLR,CLR,0.00,0.0,WeatherDisplay:10.37,2013-03-20 06:53:00,
2013-03-20 02:58:00,25.5,16.8,30.07,WSW,242,0.0,40.0,69,21.95,,---,0.00,,VWS V13.01,2013-03-20 06:58:00,
2013-03-20 03:03:00,25.5,16.8,30.07,West,264,5.0,40.0,69,21.95,,---,0.00,,VWS V13.01,2013-03-20 07:03:00,
2013-03-20 03:08:00,25.4,16.7,30.06,WSW,258,2.0,40.0,69,21.95,,---,0.00,,VWS V13.01,2013-03-20 07:08:00,
2013-03-20 03:13:00,25.4,16.7,30.07,West,273,5.0,40.0,69,21.95,,---,0.00,,VWS V13.01,2013-03-20 07:13:00,
2013-03-20 03:18:00,25.3,16.9,30.06,West,271,4.0,40.0,70,21.95,,---,0.00,,VWS V13.01,2013-03-20 07:18:00,
2013-03-20 03:23:00,25.3,16.9,30.07,SW,235,7.0,40.0,70,21.95,,---,0.00,,VWS V13.01,2013-03-20 07:23:00,
2013-03-20 03:28:00,25.3,16.9,30.07,WNW,284,4.0,40.0,70,21.95,,---,0.00,,VWS V13.01,2013-03-20 07:28:00,
2013-03-20 03:33:00,25.2,16.8,30.06,West,272,2.0,40.0,70,21.95,,---,0.00,,VWS V13.01,2013-03-20 07:33:00,
2013-03-20 03:38:00,25.2,16.8,30.06,West,272,5.0,5.0,70,0.00,CLR,CLR,0.00,0.0,WeatherDisplay:10.37,2013-03-20 07:38:00,
2013-03-20 03:43:00,25.2,16.8,30.06,WNW,292,6.9,6.9,70,0.00,CLR,CLR,0.00,0.0,WeatherDisplay:10.37,2013-03-20 07:43:00,
2013-03-20 03:48:00,25.2,16.8,30.06,WSW,252,4.0,40.0,70,21.95,,---,0.00,,VWS V13.01,2013-03-20 07:48:00,
2013-03-20 03:53:00,25.2,16.8,30.06,WSW,253,11.5,11.5,70,0.00,CLR,CLR,0.00,0.0,WeatherDisplay:10.37,2013-03-20 07:53:00,
2013-03-20 03:58:00,25.2,16.5,30.06,WSW,254,4.0,40.0,69,21.95,,---,0.00,,VWS V13.01,2013-03-20 07:58:00,
2013-03-20 04:03:00,25.2,16.8,30.06,WNW,293,10.4,10.4,70,0.00,CLR,CLR,0.00,0.0,WeatherDisplay:10.37,2013-03-20 08:03:00,
2013-03-20 04:08:00,25.2,16.5,30.06,WSW,248,4.0,40.0,69,21.95,,---,0.00,,VWS V13.01,2013-03-20 08:08:00,
2013-03-20 04:13:00,25.1,16.7,30.05,West,268,4.0,40.0,70,21.95,,---,0.00,,VWS V13.01,2013-03-20 08:13:00,
2013-03-20 04:18:00,25.0,16.6,30.05,West,274,6.0,40.0,70,21.95,,---,0.00,,VWS V13.01,2013-03-20 08:18:00,
2013-03-20 04:24:00,24.9,16.5,30.05,WNW,302,8.0,40.0,70,21.95,,---,0.00,,VWS V13.01,2013-03-20 08:24:00,
2013-03-20 04:29:00,24.9,16.8,30.05,WNW,284,5.0,40.0,71,21.95,,---,0.00,,VWS V13.01,2013-03-20 08:29:00,
2013-03-20 04:34:00,24.9,16.8,30.05,WSW,253,4.6,4.6,71,0.00,CLR,CLR,0.00,0.0,WeatherDisplay:10.37,2013-03-20 08:34:00,
2013-03-20 04:39:00,24.8,16.7,30.05,WNW,290,9.2,9.2,71,0.00,CLR,CLR,0.00,0.0,WeatherDisplay:10.37,2013-03-20 08:39:00,
2013-03-20 04:44:00,24.6,16.5,30.05,WNW,284,6.9,6.9,71,0.00,CLR,CLR,0.00,0.0,WeatherDisplay:10.37,2013-03-20 08:44:00,
2013-03-20 04:49:00,24.5,16.5,30.05,West,277,5.0,40.0,71,21.95,,---,0.00,,VWS V13.01,2013-03-20 08:49:00,
2013-03-20 04:54:00,24.4,16.4,30.05,NW,314,5.0,40.0,71,21.95,,---,0.00,,VWS V13.01,2013-03-20 08:54:00,
2013-03-20 04:59:00,24.4,16.3,30.04,West,263,4.6,4.6,71,0.00,CLR,CLR,0.00,0.0,WeatherDisplay:10.37,2013-03-20 08:59:00,
2013-03-20 05:04:00,24.2,16.5,30.04,West,281,6.0,40.0,72,21.95,,---,0.00,,VWS V13.01,2013-03-20 09:04:00,
2013-03-20 05:09:00,24.1,16.1,30.04,West,279,6.9,6.9,71,0.00,CLR,CLR,0.00,0.0,WeatherDisplay:10.37,2013-03-20 09:09:00,
2013-03-20 05:14:00,23.9,16.2,30.04,West,261,0.0,40.0,72,21.95,,---,0.00,,VWS V13.01,2013-03-20 09:14:00,
2013-03-20 05:19:00,23.7,16.0,30.04,WNW,302,13.8,13.8,72,0.00,CLR,CLR,0.00,0.0,WeatherDisplay:10.37,2013-03-20 09:19:00,
2013-03-20 05:24:00,23.6,15.9,30.04,WNW,303,0.0,40.0,72,21.95,,---,0.00,,VWS V13.01,2013-03-20 09:24:00,
2013-03-20 05:29:00,23.5,15.8,30.04,West,263,0.0,40.0,72,21.95,,---,0.00,,VWS V13.01,2013-03-20 09:29:00,
2013-03-20 05:34:00,23.3,15.6,30.04,NW,304,2.0,40.0,72,21.95,,---,0.00,,VWS V13.01,2013-03-20 09:34:00,
2013-03-20 05:39:00,23.2,15.5,30.04,WNW,292,10.4,10.4,72,0.00,CLR,CLR,0.00,0.0,WeatherDisplay:10.37,2013-03-20 09:39:00,
2013-03-20 05:44:00,23.0,15.3,30.04,NW,304,6.9,6.9,72,0.00,CLR,CLR,0.00,0.0,WeatherDisplay:10.37,2013-03-20 09:44:00,
2013-03-20 05:49:00,22.9,15.2,30.05,West,279,9.2,9.2,72,0.00,CLR,CLR,0.00,0.0,WeatherDisplay:10.37,2013-03-20 09:49:00,
2013-03-20 05:54:00,22.8,15.1,30.05,WNW,290,0.0,40.0,72,21.95,,---,0.00,,VWS V13.01,2013-03-20 09:54:00,
2013-03-20 05:59:00,22.6,14.9,30.05,WNW,286,5.0,40.0,72,21.95,,---,0.00,,VWS V13.01,2013-03-20 09:59:00,
2013-03-20 06:04:00,22.6,14.9,30.05,NW,317,1.0,40.0,72,21.95,,---,0.00,,VWS V13.01,2013-03-20 10:04:00,
2013-03-20 06:09:00,22.5,14.5,30.05,NW,309,3.0,40.0,71,21.95,,---,0.00,,VWS V13.01,2013-03-20 10:09:00,
2013-03-20 06:14:00,22.3,14.3,30.05,West,276,3.5,3.5,71,0.00,OVC,OVC,0.00,0.0,WeatherDisplay:10.37,2013-03-20 10:14:00,
2013-03-20 06:19:00,22.1,14.1,30.05,WNW,285,4.0,40.0,71,21.95,,---,0.00,,VWS V13.01,2013-03-20 10:19:00,
2013-03-20 06:24:00,22.0,14.0,30.05,WNW,289,0.0,0.0,71,0.00,OVC,OVC,0.00,0.0,WeatherDisplay:10.37,2013-03-20 10:24:00,
2013-03-20 06:29:00,21.9,13.6,30.05,WNW,284,0.0,40.0,70,21.95,,---,0.00,,VWS V13.01,2013-03-20 10:29:00,
2013-03-20 06:34:00,21.8,13.5,30.05,WNW,295,0.0,0.0,70,0.00,OVC,OVC,0.00,0.0,WeatherDisplay:10.37,2013-03-20 10:34:00,
2013-03-20 06:39:00,21.5,13.6,30.05,WNW,290,4.0,40.0,71,21.95,,---,0.00,,VWS V13.01,2013-03-20 10:39:00,
2013-03-20 06:44:00,21.3,13.4,30.05,WNW,296,0.0,40.0,71,21.95,,---,0.00,,VWS V13.01,2013-03-20 10:44:00,
2013-03-20 06:49:00,21.3,13.4,30.06,NW,304,4.0,4.0,71,0.00,OVC,OVC,0.00,0.0,WeatherDisplay:10.37,2013-03-20 10:49:00,
2013-03-20 06:54:00,21.3,13.4,30.06,WNW,292,1.0,40.0,71,21.95,,---,0.00,,VWS V13.01,2013-03-20 10:54:00,
2013-03-20 06:59:00,21.2,13.3,30.06,WNW,296,2.0,40.0,71,21.95,,---,0.00,,VWS V13.01,2013-03-20 10:59:00,
2013-03-20 07:04:00,21.1,13.2,30.06,WNW,292,5.0,40.0,71,21.95,,---,0.00,,VWS V13.01,2013-03-20 11:04:00,
2013-03-20 07:10:00,21.1,13.2,30.06,WNW,299,2.0,40.0,71,21.95,,---,0.00,,VWS V13.01,2013-03-20 11:10:00,
2013-03-20 07:15:00,21.0,13.1,30.06,West,264,3.5,3.5,71,0.00,OVC,OVC,0.00,0.0,WeatherDisplay:10.37,2013-03-20 11:15:00,
2013-03-20 07:20:00,20.9,13.0,30.06,WNW,296,2.0,40.0,71,21.95,,---,0.00,,VWS V13.01,2013-03-20 11:20:00,
2013-03-20 07:25:00,20.7,12.8,30.06,West,263,3.0,40.0,71,21.95,,---,0.00,,VWS V13.01,2013-03-20 11:25:00,
2013-03-20 07:30:00,20.6,12.7,30.06,WNW,292,5.8,5.8,71,0.00,OVC,OVC,0.00,0.0,WeatherDisplay:10.37,2013-03-20 11:30:00,
2013-03-20 07:35:00,20.4,12.5,30.06,WNW,302,2.0,40.0,71,21.95,,---,0.00,,VWS V13.01,2013-03-20 11:35:00,
2013-03-20 07:40:00,20.2,12.6,30.06,WSW,252,4.0,40.0,72,21.95,,---,0.00,,VWS V13.01,2013-03-20 11:40:00,
2013-03-20 07:45:00,20.1,12.5,30.06,WNW,284,3.0,40.0,72,21.95,,---,0.00,,VWS V13.01,2013-03-20 11:45:00,
2013-03-20 07:50:00,20.0,12.4,30.07,WNW,289,0.0,40.0,72,21.95,,---,0.00,,VWS V13.01,2013-03-20 11:50:00,
2013-03-20 07:55:00,19.9,12.7,30.07,WNW,287,4.0,40.0,73,21.95,,---,0.00,,VWS V13.01,2013-03-20 11:55:00,
2013-03-20 08:00:00,19.9,12.7,30.07,WNW,285,4.0,40.0,73,21.95,,---,0.00,,VWS V13.01,2013-03-20 12:00:00,
2013-03-20 08:05:00,19.9,12.7,30.07,West,277,6.0,40.0,73,21.95,,---,0.00,,VWS V13.01,2013-03-20 12:05:00,
2013-03-20 08:10:00,20.0,12.4,30.07,West,265,4.0,40.0,72,21.95,,---,0.00,,VWS V13.01,2013-03-20 12:10:00,
2013-03-20 08:15:00,20.1,12.5,30.08,WNW,286,6.9,6.9,72,0.00,OVC,OVC,0.00,25.0,WeatherDisplay:10.37,2013-03-20 12:15:00,
2013-03-20 08:20:00,20.1,12.9,30.08,WNW,283,0.0,40.0,73,21.95,,---,0.00,,VWS V13.01,2013-03-20 12:20:00,
2013-03-20 08:25:00,20.1,12.8,30.08,NW,306,9.2,9.2,73,0.00,OVC,OVC,0.00,35.0,WeatherDisplay:10.37,2013-03-20 12:25:00,
2013-03-20 08:30:00,20.1,12.5,30.08,West,269,5.0,40.0,72,21.95,,---,0.00,,VWS V13.01,2013-03-20 12:30:00,
2013-03-20 08:35:00,20.2,12.6,30.08,West,277,6.9,6.9,72,0.00,OVC,OVC,0.00,58.0,WeatherDisplay:10.37,2013-03-20 12:35:00,
2013-03-20 08:41:00,20.3,12.7,30.08,West,275,6.0,40.0,72,21.95,,---,0.00,,VWS V13.01,2013-03-20 12:41:00,
2013-03-20 08:46:00,20.1,12.5,30.08,WNW,303,5.0,40.0,72,21.95,,---,0.00,,VWS V13.01,2013-03-20 12:46:00,
2013-03-20 08:51:00,20.1,12.5,30.08,WNW,290,6.0,40.0,72,21.95,,---,0.00,,VWS V13.01,2013-03-20 12:51:00,
2013-03-20 08:56:00,20.4,12.8,30.08,West,271,6.0,40.0,72,21.95,,---,0.00,,VWS V13.01,2013-03-20 12:56:00,
2013-03-20 09:01:00,20.6,13.0,30.08,West,277,2.0,40.0,72,21.95,,---,0.00,,VWS V13.01,2013-03-20 13:01:00,
2013-03-20 09:06:00,20.6,12.7,30.08,West,267,4.0,40.0,71,21.95,,---,0.00,,VWS V13.01,2013-03-20 13:06:00,
2013-03-20 09:11:00,20.7,12.8,30.08,WNW,291,5.0,40.0,71,21.95,,---,0.00,,VWS V13.01,2013-03-20 13:11:00,
2013-03-20 09:16:00,20.6,12.7,30.08,WNW,293,2.0,40.0,71,21.95,,---,0.00,,VWS V13.01,2013-03-20 13:16:00,
2013-03-20 09:21:00,20.7,12.8,30.08,WNW,282,5.0,40.0,71,21.95,,---,0.00,,VWS V13.01,2013-03-20 13:21:00,
2013-03-20 09:26:00,20.6,13.0,30.08,WNW,294,5.0,40.0,72,21.95,,---,0.00,,VWS V13.01,2013-03-20 13:26:00,
2013-03-20 09:31:00,20.5,12.6,30.08,West,273,5.0,40.0,71,21.95,,---,0.00,,VWS V13.01,2013-03-20 13:31:00,
2013-03-20 09:36:00,20.3,12.4,30.08,West,277,4.0,40.0,71,21.95,,---,0.00,,VWS V13.01,2013-03-20 13:36:00,
2013-03-20 09:41:00,20.7,12.8,30.08,WNW,295,5.0,40.0,71,21.95,,---,0.00,,VWS V13.01,2013-03-20 13:41:00,
2013-03-20 09:46:00,20.8,12.2,30.08,WNW,288,9.0,40.0,69,21.95,,---,0.00,,VWS V13.01,2013-03-20 13:46:00,
2013-03-20 09:51:00,20.9,12.4,30.08,WNW,296,6.0,40.0,69,21.95,,---,0.00,,VWS V13.01,2013-03-20 13:51:00,
2013-03-20 09:56:00,20.9,12.4,30.08,NW,312,6.0,40.0,69,21.95,,---,0.00,,VWS V13.01,2013-03-20 13:56:00,
2013-03-20 10:01:00,21.2,12.6,30.08,WNW,294,11.5,11.5,69,0.00,OVC,OVC,0.00,506.0,WeatherDisplay:10.37,2013-03-20 14:01:00,
2013-03-20 10:06:00,21.7,13.4,30.08,NW,317,13.8,13.8,70,0.00,OVC,OVC,0.00,385.0,WeatherDisplay:10.37,2013-03-20 14:06:00,
2013-03-20 10:11:00,21.4,12.5,30.08,WNW,291,15.0,15.0,68,0.00,OVC,OVC,0.00,171.0,WeatherDisplay:10.37,2013-03-20 14:11:00,
2013-03-20 10:17:00,20.8,12.2,30.08,WNW,299,9.2,9.2,69,0.00,OVC,OVC,0.00,141.0,WeatherDisplay:10.37,2013-03-20 14:17:00,
2013-03-20 10:22:00,20.9,12.7,30.08,WNW,283,6.0,40.0,70,21.95,,---,0.00,,VWS V13.01,2013-03-20 14:22:00,
2013-03-20 10:27:00,21.5,12.9,30.08,WNW,290,11.5,11.5,69,0.00,OVC,OVC,0.00,504.0,WeatherDisplay:10.37,2013-03-20 14:27:00,
2013-03-20 10:32:00,21.3,12.0,30.08,West,275,10.4,10.4,67,0.00,OVC,OVC,0.00,527.0,WeatherDisplay:10.37,2013-03-20 14:32:00,
2013-03-20 10:37:00,21.3,12.0,30.08,WNW,291,11.5,11.5,67,0.00,OVC,OVC,0.00,570.0,WeatherDisplay:10.37,2013-03-20 14:37:00,
2013-03-20 10:42:00,21.5,12.2,30.08,West,277,10.4,10.4,67,0.00,OVC,OVC,0.00,610.0,WeatherDisplay:10.37,2013-03-20 14:42:00,
2013-03-20 10:47:00,21.8,12.9,30.08,WNW,298,4.0,40.0,68,21.95,,---,0.00,,VWS V13.01,2013-03-20 14:47:00,
2013-03-20 10:52:00,21.5,12.6,30.08,WNW,286,9.0,40.0,68,21.95,,---,0.00,,VWS V13.01,2013-03-20 14:52:00,
2013-03-20 10:57:00,21.4,11.8,30.08,WNW,300,7.0,40.0,66,21.95,,---,0.00,,VWS V13.01,2013-03-20 14:57:00,
2013-03-20 11:02:00,21.7,12.4,30.08,WNW,294,11.5,11.5,67,0.00,OVC,OVC,0.00,636.0,WeatherDisplay:10.37,2013-03-20 15:02:00,
2013-03-20 11:07:00,21.7,11.4,30.08,NW,319,7.0,40.0,64,21.95,,---,0.00,,VWS V13.01,2013-03-20 15:07:00,
2013-03-20 11:12:00,21.7,11.4,30.08,WNW,290,12.0,40.0,64,21.95,,---,0.00,,VWS V13.01,2013-03-20 15:12:00,
2013-03-20 11:17:00,21.9,11.9,30.08,West,263,5.8,5.8,65,0.00,OVC,OVC,0.00,791.0,WeatherDisplay:10.37,2013-03-20 15:17:00,
2013-03-20 11:22:00,22.0,11.7,30.08,NW,313,6.9,6.9,64,0.00,OVC,OVC,0.00,174.0,WeatherDisplay:10.37,2013-03-20 15:22:00,
2013-03-20 11:28:00,21.5,11.2,30.08,WNW,288,7.0,40.0,64,21.95,,---,0.00,,VWS V13.01,2013-03-20 15:28:00,
2013-03-20 11:33:00,22.2,11.9,30.08,WNW,287,4.0,40.0,64,21.95,,---,0.00,,VWS V13.01,2013-03-20 15:33:00,
2013-03-20 11:38:00,22.6,11.9,30.08,West,281,4.0,40.0,63,21.95,,---,0.00,,VWS V13.01,2013-03-20 15:38:00,
2013-03-20 11:43:00,22.2,11.5,30.08,WSW,237,2.0,40.0,63,21.95,,---,0.00,,VWS V13.01,2013-03-20 15:43:00,
2013-03-20 11:48:00,22.0,12.1,30.08,WNW,302,6.0,40.0,65,21.95,,---,0.00,,VWS V13.01,2013-03-20 15:48:00,
2013-03-20 11:53:00,22.2,11.5,30.08,West,267,7.0,40.0,63,21.95,,---,0.00,,VWS V13.01,2013-03-20 15:53:00,
2013-03-20 11:58:00,23.0,12.6,30.08,WNW,284,4.0,40.0,64,21.95,,---,0.00,,VWS V13.01,2013-03-20 15:58:00,
2013-03-20 12:03:00,22.8,11.4,30.08,WNW,300,5.0,40.0,61,21.95,,---,0.00,,VWS V13.01,2013-03-20 16:03:00,
2013-03-20 12:08:00,22.5,11.1,30.08,NW,321,3.0,40.0,61,21.95,,---,0.00,,VWS V13.01,2013-03-20 16:08:00,
2013-03-20 12:13:00,23.0,11.2,30.08,West,273,5.0,40.0,60,21.95,,---,0.00,,VWS V13.01,2013-03-20 16:13:00,
2013-03-20 12:18:00,23.5,11.3,30.08,West,266,6.0,40.0,59,21.95,,---,0.00,,VWS V13.01,2013-03-20 16:18:00,
2013-03-20 12:23:00,23.0,11.2,30.08,West,280,8.0,40.0,60,21.95,,---,0.00,,VWS V13.01,2013-03-20 16:23:00,
2013-03-20 12:28:00,23.0,11.6,30.08,WSW,246,9.0,40.0,61,21.95,,---,0.00,,VWS V13.01,2013-03-20 16:28:00,
2013-03-20 12:33:00,22.2,10.4,30.08,WNW,287,3.0,40.0,60,21.95,,---,0.00,,VWS V13.01,2013-03-20 16:33:00,
2013-03-20 12:38:00,22.4,11.4,30.08,WNW,288,5.0,40.0,62,21.95,,---,0.00,,VWS V13.01,2013-03-20 16:38:00,
2013-03-20 12:43:00,23.0,11.5,30.08,West,275,11.5,11.5,61,0.00,CLR,CLR,0.00,984.0,WeatherDisplay:10.37,2013-03-20 16:43:00,
2013-03-20 12:48:00,22.5,10.0,30.08,WNW,290,5.0,40.0,58,21.95,,---,0.00,,VWS V13.01,2013-03-20 16:48:00,
2013-03-20 12:53:00,23.1,10.9,30.08,West,272,12.0,40.0,59,21.95,,---,0.00,,VWS V13.01,2013-03-20 16:53:00,
2013-03-20 12:58:00,22.5,10.0,30.08,West,281,3.0,40.0,58,21.95,,---,0.00,,VWS V13.01,2013-03-20 16:58:00,
2013-03-20 13:03:00,22.6,10.8,30.08,West,259,7.0,7.0,60,0.00,CLR,CLR,0.00,592.0,WeatherDisplay:10.37,2013-03-20 17:03:00,
2013-03-20 13:08:00,22.6,11.2,30.08,WSW,252,13.0,40.0,61,21.95,,---,0.00,,VWS V13.01,2013-03-20 17:08:00,
2013-03-20 13:13:00,22.7,10.2,30.08,West,281,9.0,40.0,58,21.95,,---,0.00,,VWS V13.01,2013-03-20 17:13:00,
2013-03-20 13:18:00,22.0,9.1,30.09,WNW,294,9.2,9.2,57,0.00,CLR,CLR,0.00,283.0,WeatherDisplay:10.37,2013-03-20 17:18:00,
2013-03-20 13:23:00,22.0,9.5,30.08,NW,304,6.0,40.0,58,21.95,,---,0.00,,VWS V13.01,2013-03-20 17:23:00,
2013-03-20 13:28:00,21.9,9.4,30.08,WNW,294,6.0,40.0,58,21.95,,---,0.00,,VWS V13.01,2013-03-20 17:28:00,
2013-03-20 13:33:00,21.7,9.6,30.08,WNW,296,9.2,9.2,59,0.00,FEW,FEW,0.00,274.0,WeatherDisplay:10.37,2013-03-20 17:33:00,
2013-03-20 13:38:00,22.1,10.4,30.08,NW,312,5.0,40.0,60,21.95,,---,0.00,,VWS V13.01,2013-03-20 17:38:00,
2013-03-20 13:43:00,23.2,11.8,30.08,West,273,6.0,40.0,61,21.95,,---,0.00,,VWS V13.01,2013-03-20 17:43:00,
2013-03-20 13:48:00,23.2,10.6,30.08,WNW,295,13.8,13.8,58,0.00,CLR,CLR,0.00,877.0,WeatherDisplay:10.37,2013-03-20 17:48:00,
2013-03-20 13:54:00,22.0,9.5,30.08,West,279,4.0,40.0,58,21.95,,---,0.00,,VWS V13.01,2013-03-20 17:54:00,
2013-03-20 13:59:00,22.8,10.2,30.08,West,264,10.4,10.4,58,0.00,CLR,CLR,0.00,926.0,WeatherDisplay:10.37,2013-03-20 17:59:00,
2013-03-20 14:04:00,23.6,11.0,30.08,WNW,287,6.0,40.0,58,21.95,,---,0.00,,VWS V13.01,2013-03-20 18:04:00,
2013-03-20 14:09:00,23.1,10.1,30.08,West,265,12.7,12.7,57,0.00,CLR,CLR,0.00,872.0,WeatherDisplay:10.37,2013-03-20 18:09:00,
2013-03-20 14:14:00,23.2,10.6,30.08,West,281,9.0,40.0,58,21.95,,---,0.00,,VWS V13.01,2013-03-20 18:14:00,
2013-03-20 14:19:00,22.8,9.9,30.08,NW,308,6.0,40.0,57,21.95,,---,0.00,,VWS V13.01,2013-03-20 18:19:00,
2013-03-20 14:24:00,22.7,10.1,30.08,WNW,290,8.1,8.1,58,0.00,BKN,BKN,0.00,250.0,WeatherDisplay:10.37,2013-03-20 18:24:00,
2013-03-20 14:29:00,23.3,10.7,30.08,WNW,283,11.5,11.5,58,0.00,CLR,CLR,0.00,900.0,WeatherDisplay:10.37,2013-03-20 18:29:00,
2013-03-20 14:34:00,24.1,11.4,30.07,WNW,290,11.5,11.5,58,0.00,CLR,CLR,0.00,881.0,WeatherDisplay:10.37,2013-03-20 18:34:00,
2013-03-20 14:39:00,23.6,9.8,30.07,NW,304,5.0,40.0,55,21.95,,---,0.00,,VWS V13.01,2013-03-20 18:39:00,
2013-03-20 14:44:00,23.6,10.2,30.07,West,263,6.0,40.0,56,21.95,,---,0.00,,VWS V13.01,2013-03-20 18:44:00,
2013-03-20 14:49:00,24.3,10.1,30.07,West,279,4.0,40.0,54,21.95,,---,0.00,,VWS V13.01,2013-03-20 18:49:00,
2013-03-20 14:54:00,24.0,10.2,30.07,NW,313,11.5,11.5,55,0.00,CLR,CLR,0.00,937.0,WeatherDisplay:10.37,2013-03-20 18:54:00,
2013-03-20 14:59:00,23.6,9.0,30.06,West,271,8.0,40.0,53,21.95,,---,0.00,,VWS V13.01,2013-03-20 18:59:00,
2013-03-20 15:04:00,24.1,9.9,30.06,NW,309,4.0,40.0,54,21.95,,---,0.00,,VWS V13.01,2013-03-20 19:04:00,
2013-03-20 15:09:00,23.6,9.0,30.06,West,268,6.0,40.0,53,21.95,,---,0.00,,VWS V13.01,2013-03-20 19:09:00,
2013-03-20 15:14:00,24.3,10.4,30.06,WNW,290,10.0,10.0,55,0.00,CLR,CLR,0.00,812.0,WeatherDisplay:10.37,2013-03-20 19:14:00,
2013-03-20 15:19:00,23.8,9.6,30.06,WSW,240,12.7,12.7,54,0.00,OVC,OVC,0.00,770.0,WeatherDisplay:10.37,2013-03-20 19:19:00,
2013-03-20 15:24:00,24.0,10.6,30.05,West,269,10.4,10.4,56,0.00,CLR,CLR,0.00,872.0,WeatherDisplay:10.37,2013-03-20 19:24:00,
2013-03-20 15:29:00,24.9,11.4,30.05,WNW,284,7.0,40.0,56,21.95,,---,0.00,,VWS V13.01,2013-03-20 19:29:00,
2013-03-20 15:34:00,23.9,9.7,30.05,WNW,293,7.0,40.0,54,21.95,,---,0.00,,VWS V13.01,2013-03-20 19:34:00,
2013-03-20 15:40:00,24.3,9.6,30.05,West,277,13.0,40.0,53,21.95,,---,0.00,,VWS V13.01,2013-03-20 19:40:00,
2013-03-20 15:45:00,24.3,10.1,30.05,West,278,5.0,40.0,54,21.95,,---,0.00,,VWS V13.01,2013-03-20 19:45:00,
2013-03-20 15:50:00,24.1,9.5,30.05,WSW,248,6.0,40.0,53,21.95,,---,0.00,,VWS V13.01,2013-03-20 19:50:00,
2013-03-20 15:55:00,24.1,9.9,30.05,West,264,7.0,40.0,54,21.95,,---,0.00,,VWS V13.01,2013-03-20 19:55:00,
2013-03-20 16:00:00,25.1,10.8,30.04,NW,309,11.5,11.5,54,0.00,CLR,CLR,0.00,693.0,WeatherDisplay:10.37,2013-03-20 20:00:00,
2013-03-20 16:05:00,24.9,9.7,30.05,WNW,294,11.5,11.5,52,0.00,FEW,FEW,0.00,657.0,WeatherDisplay:10.37,2013-03-20 20:05:00,
2013-03-20 16:10:00,25.1,10.0,30.05,WSW,246,7.0,40.0,52,21.95,,---,0.00,,VWS V13.01,2013-03-20 20:10:00,
2013-03-20 16:15:00,24.1,8.6,30.04,West,271,13.0,13.0,51,0.00,OVC,OVC,0.00,134.0,WeatherDisplay:10.37,2013-03-20 20:15:00,
2013-03-20 16:20:00,24.5,9.8,30.04,West,273,13.8,13.8,53,0.00,FEW,FEW,0.00,322.0,WeatherDisplay:10.37,2013-03-20 20:20:00,
2013-03-20 16:25:00,25.2,10.5,30.04,NW,309,4.0,40.0,53,21.95,,---,0.00,,VWS V13.01,2013-03-20 20:25:00,
2013-03-20 16:30:00,24.8,9.2,30.04,NW,321,4.0,40.0,51,21.95,,---,0.00,,VWS V13.01,2013-03-20 20:30:00,
2013-03-20 16:35:00,24.3,9.6,30.04,West,273,7.0,40.0,53,21.95,,---,0.00,,VWS V13.01,2013-03-20 20:35:00,
2013-03-20 16:40:00,24.7,10.0,30.05,WNW,292,7.0,40.0,53,21.95,,---,0.00,,VWS V13.01,2013-03-20 20:40:00,
2013-03-20 16:45:00,24.6,9.5,30.05,West,263,13.8,13.8,52,0.00,OVC,OVC,0.00,176.0,WeatherDisplay:10.37,2013-03-20 20:45:00,
2013-03-20 16:50:00,24.3,9.2,30.05,West,275,13.8,13.8,52,0.00,BKN,BKN,0.00,336.0,WeatherDisplay:10.37,2013-03-20 20:50:00,
2013-03-20 16:55:00,24.6,9.5,30.05,West,279,10.0,40.0,52,21.95,,---,0.00,,VWS V13.01,2013-03-20 20:55:00,
2013-03-20 17:00:00,25.1,9.9,30.04,NW,317,15.0,15.0,52,0.00,SCT,SCT,0.00,520.0,WeatherDisplay:10.37,2013-03-20 21:00:00,
2013-03-20 17:05:00,24.4,9.3,30.05,West,279,8.1,8.1,52,0.00,SCT,SCT,0.00,503.0,WeatherDisplay:10.37,2013-03-20 21:05:00,
2013-03-20 17:10:00,24.5,10.2,30.05,WNW,297,6.0,40.0,54,21.95,,---,0.00,,VWS V13.01,2013-03-20 21:10:00,
2013-03-20 17:15:00,24.5,9.8,30.05,WNW,295,10.0,40.0,53,21.95,,---,0.00,,VWS V13.01,2013-03-20 21:15:00,
2013-03-20 17:20:00,24.3,9.6,30.05,WNW,296,3.0,40.0,53,21.95,,---,0.00,,VWS V13.01,2013-03-20 21:20:00,
2013-03-20 17:25:00,23.6,9.0,30.05,NW,308,9.0,40.0,53,21.95,,---,0.00,,VWS V13.01,2013-03-20 21:25:00,
2013-03-20 17:30:00,23.4,9.6,30.05,WNW,282,4.0,40.0,55,21.95,,---,0.00,,VWS V13.01,2013-03-20 21:30:00,
2013-03-20 17:35:00,23.4,9.6,30.05,WNW,298,6.9,6.9,55,0.00,BKN,BKN,0.00,343.0,WeatherDisplay:10.37,2013-03-20 21:35:00,
2013-03-20 17:40:00,23.4,10.0,30.05,West,275,4.0,40.0,56,21.95,,---,0.00,,VWS V13.01,2013-03-20 21:40:00,
2013-03-20 17:46:00,23.5,9.7,30.04,WNW,284,4.0,40.0,55,21.95,,---,0.00,,VWS V13.01,2013-03-20 21:46:00,
2013-03-20 17:51:00,23.3,9.5,30.05,WSW,252,5.0,40.0,55,21.95,,---,0.00,,VWS V13.01,2013-03-20 21:51:00,
2013-03-20 17:56:00,23.4,10.0,30.05,West,264,9.0,40.0,56,21.95,,---,0.00,,VWS V13.01,2013-03-20 21:56:00,
2013-03-20 18:01:00,23.1,9.7,30.05,WNW,296,6.9,6.9,56,0.00,OVC,OVC,0.00,306.0,WeatherDisplay:10.37,2013-03-20 22:01:00,
2013-03-20 18:06:00,23.8,10.4,30.05,NNE,19,8.0,40.0,56,21.95,,---,0.00,,VWS V13.01,2013-03-20 22:06:00,
2013-03-20 18:11:00,23.8,10.4,30.05,SW,225,5.0,40.0,56,21.95,,---,0.00,,VWS V13.01,2013-03-20 22:11:00,
2013-03-20 18:16:00,23.3,10.3,30.05,West,259,13.8,13.8,57,0.00,OVC,OVC,0.00,160.0,WeatherDisplay:10.37,2013-03-20 22:16:00,
2013-03-20 18:21:00,22.7,10.5,30.06,West,265,9.0,40.0,59,21.95,,---,0.00,,VWS V13.01,2013-03-20 22:21:00,
2013-03-20 18:26:00,22.2,10.0,30.06,West,269,7.0,7.0,59,0.00,OVC,OVC,0.00,95.0,WeatherDisplay:10.37,2013-03-20 22:26:00,
2013-03-20 18:31:00,22.3,10.2,30.06,WNW,302,6.0,40.0,59,21.95,,---,0.00,,VWS V13.01,2013-03-20 22:31:00,
2013-03-20 18:37:00,22.1,10.0,30.06,NW,311,4.0,40.0,59,21.95,,---,0.00,,VWS V13.01,2013-03-20 22:37:00,
2013-03-20 18:42:00,22.1,9.9,30.06,West,277,12.7,12.7,59,0.00,OVC,OVC,0.00,95.0,WeatherDisplay:10.37,2013-03-20 22:42:00,
2013-03-20 18:47:00,22.1,10.7,30.06,NNW,328,6.9,6.9,61,0.00,OVC,OVC,0.00,83.0,WeatherDisplay:10.37,2013-03-20 22:47:00,
2013-03-20 18:52:00,21.9,10.5,30.06,NW,309,6.0,40.0,61,21.95,,---,0.00,,VWS V13.01,2013-03-20 22:52:00,
2013-03-20 18:57:00,21.7,11.1,30.06,West,278,0.0,40.0,63,21.95,,---,0.00,,VWS V13.01,2013-03-20 22:57:00,
2013-03-20 19:02:00,21.6,10.6,30.06,West,275,11.0,11.0,62,0.00,CLR,CLR,0.00,44.0,WeatherDisplay:10.37,2013-03-20 23:02:00,
2013-03-20 19:07:00,21.6,10.6,30.06,NW,318,2.0,40.0,62,21.95,,---,0.00,,VWS V13.01,2013-03-20 23:07:00,
2013-03-20 19:12:00,21.7,10.3,30.06,WNW,296,6.9,6.9,61,0.00,CLR,CLR,0.00,62.0,WeatherDisplay:10.37,2013-03-20 23:12:00,
2013-03-20 19:17:00,21.6,10.2,30.06,WNW,298,4.0,40.0,61,21.95,,---,0.00,,VWS V13.01,2013-03-20 23:17:00,
2013-03-20 19:22:00,21.5,10.5,30.06,NW,310,10.4,10.4,62,0.00,CLR,CLR,0.00,35.0,WeatherDisplay:10.37,2013-03-20 23:22:00,
2013-03-20 19:27:00,21.2,10.2,30.06,WNW,300,6.9,6.9,62,0.00,CLR,CLR,0.00,26.0,WeatherDisplay:10.37,2013-03-20 23:27:00,
2013-03-20 19:32:00,21.1,10.5,30.07,West,275,5.0,40.0,63,21.95,,---,0.00,,VWS V13.01,2013-03-20 23:32:00,
2013-03-20 19:37:00,20.9,10.6,30.06,WSW,247,12.7,12.7,64,0.00,CLR,CLR,0.00,14.0,WeatherDisplay:10.37,2013-03-20 23:37:00,
2013-03-20 19:42:00,20.8,10.9,30.07,WSW,254,10.4,10.4,65,0.00,CLR,CLR,0.00,11.0,WeatherDisplay:10.37,2013-03-20 23:42:00,
2013-03-20 19:47:00,20.6,10.7,30.07,WNW,301,7.0,40.0,65,21.95,,---,0.00,,VWS V13.01,2013-03-20 23:47:00,
2013-03-20 19:53:00,20.4,11.5,30.07,NW,314,3.0,40.0,68,21.95,,---,0.00,,VWS V13.01,2013-03-20 23:53:00,
2013-03-20 19:58:00,20.3,11.4,30.07,WSW,244,5.0,40.0,68,21.95,,---,0.00,,VWS V13.01,2013-03-20 23:58:00,
2013-03-20 20:03:00,20.3,11.1,30.07,WNW,303,0.0,40.0,67,21.95,,---,0.00,,VWS V13.01,2013-03-21 00:03:00,
2013-03-20 20:08:00,20.5,11.3,30.07,WNW,302,6.0,40.0,67,21.95,,---,0.00,,VWS V13.01,2013-03-21 00:08:00,
2013-03-20 20:13:00,20.6,10.7,30.07,West,279,5.0,40.0,65,21.95,,---,0.00,,VWS V13.01,2013-03-21 00:13:00,
2013-03-20 20:18:00,20.6,10.7,30.07,WNW,294,1.2,1.2,65,0.00,CLR,CLR,0.00,0.0,WeatherDisplay:10.37,2013-03-21 00:18:00,
2013-03-20 20:23:00,20.7,10.4,30.07,WNW,290,8.1,8.1,64,0.00,CLR,CLR,0.00,0.0,WeatherDisplay:10.37,2013-03-21 00:23:00,
2013-03-20 20:28:00,20.7,10.4,30.07,WNW,302,6.0,6.0,64,0.00,CLR,CLR,0.00,0.0,WeatherDisplay:10.37,2013-03-21 00:28:00,
2013-03-20 20:33:00,20.7,10.5,30.07,WNW,291,3.0,40.0,64,21.95,,---,0.00,,VWS V13.01,2013-03-21 00:33:00,
2013-03-20 20:38:00,20.7,10.8,30.07,WNW,283,3.0,40.0,65,21.95,,---,0.00,,VWS V13.01,2013-03-21 00:38:00,
2013-03-20 20:43:00,20.8,11.2,30.07,West,280,4.0,40.0,66,21.95,,---,0.00,,VWS V13.01,2013-03-21 00:43:00,
2013-03-20 20:48:00,20.7,11.5,30.07,WNW,287,3.0,40.0,67,21.95,,---,0.00,,VWS V13.01,2013-03-21 00:48:00,
2013-03-20 20:53:00,20.4,11.9,30.07,West,279,4.0,40.0,69,21.95,,---,0.00,,VWS V13.01,2013-03-21 00:53:00,
2013-03-20 20:58:00,20.2,12.0,30.07,WNW,296,0.0,40.0,70,21.95,,---,0.00,,VWS V13.01,2013-03-21 00:58:00,
2013-03-20 21:03:00,20.1,12.5,30.07,NW,309,7.0,40.0,72,21.95,,---,0.00,,VWS V13.01,2013-03-21 01:03:00,
2013-03-20 21:08:00,19.7,12.5,30.08,West,273,4.0,40.0,73,21.95,,---,0.00,,VWS V13.01,2013-03-21 01:08:00,
2013-03-20 21:13:00,19.7,12.8,30.07,WNW,284,5.0,40.0,74,21.95,,---,0.00,,VWS V13.01,2013-03-21 01:13:00,
2013-03-20 21:18:00,19.5,12.9,30.07,NNW,329,5.0,40.0,75,21.95,,---,0.00,,VWS V13.01,2013-03-21 01:18:00,
2013-03-20 21:24:00,19.4,15.1,30.07,NW,318,3.0,40.0,83,21.95,,---,0.00,,VWS V13.01,2013-03-21 01:24:00,
2013-03-20 21:29:00,19.2,12.9,30.07,WNW,283,6.9,6.9,76,0.00,CLR,CLR,0.00,0.0,WeatherDisplay:10.37,2013-03-21 01:29:00,
2013-03-20 21:34:00,19.1,12.8,30.07,West,277,0.0,40.0,76,21.95,,---,0.00,,VWS V13.01,2013-03-21 01:34:00,
2013-03-20 21:39:00,19.1,12.8,30.08,NNW,329,2.0,40.0,76,21.95,,---,0.00,,VWS V13.01,2013-03-21 01:39:00,
2013-03-20 21:44:00,19.0,12.7,30.08,NW,306,4.0,40.0,76,21.95,,---,0.00,,VWS V13.01,2013-03-21 01:44:00,
2013-03-20 21:49:00,19.1,12.8,30.07,WNW,296,0.0,40.0,76,21.95,,---,0.00,,VWS V13.01,2013-03-21 01:49:00,
2013-03-20 21:54:00,19.1,12.8,30.07,WNW,303,0.0,40.0,76,21.95,,---,0.00,,VWS V13.01,2013-03-21 01:54:00,
2013-03-20 21:59:00,19.0,12.7,30.07,NW,318,1.0,40.0,76,21.95,,---,0.00,,VWS V13.01,2013-03-21 01:59:00,
2013-03-20 22:04:00,18.9,12.6,30.07,WNW,301,3.5,3.5,76,0.00,CLR,CLR,0.00,0.0,WeatherDisplay:10.37,2013-03-21 02:04:00,
2013-03-20 22:09:00,19.0,12.7,30.07,WNW,300,0.0,40.0,76,21.95,,---,0.00,,VWS V13.01,2013-03-21 02:09:00,
2013-03-20 22:14:00,19.0,12.4,30.07,WNW,292,0.0,40.0,75,21.95,,---,0.00,,VWS V13.01,2013-03-21 02:14:00,
2013-03-20 22:19:00,18.9,12.3,30.07,WNW,302,0.0,40.0,75,21.95,,---,0.00,,VWS V13.01,2013-03-21 02:19:00,
2013-03-20 22:24:00,18.9,12.3,30.07,West,261,0.0,40.0,75,21.95,,---,0.00,,VWS V13.01,2013-03-21 02:24:00,
2013-03-20 22:29:00,19.0,12.1,30.07,WNW,290,4.0,40.0,74,21.95,,---,0.00,,VWS V13.01,2013-03-21 02:29:00,
2013-03-20 22:34:00,19.0,12.1,30.07,West,271,3.0,40.0,74,21.95,,---,0.00,,VWS V13.01,2013-03-21 02:34:00,
2013-03-20 22:39:00,19.1,12.2,30.07,NW,310,0.0,40.0,74,21.95,,---,0.00,,VWS V13.01,2013-03-21 02:39:00,
2013-03-20 22:44:00,18.9,12.0,30.07,WNW,287,3.0,40.0,74,21.95,,---,0.00,,VWS V13.01,2013-03-21 02:44:00,
2013-03-20 22:49:00,18.5,11.6,30.07,WNW,293,2.0,40.0,74,21.95,,---,0.00,,VWS V13.01,2013-03-21 02:49:00,
2013-03-20 22:54:00,18.3,11.7,30.07,WNW,300,5.0,40.0,75,21.95,,---,0.00,,VWS V13.01,2013-03-21 02:54:00,
2013-03-20 22:59:00,18.2,11.6,30.07,NW,310,2.0,40.0,75,21.95,,---,0.00,,VWS V13.01,2013-03-21 02:59:00,
2013-03-20 23:04:00,18.1,11.5,30.07,WNW,287,4.0,40.0,75,21.95,,---,0.00,,VWS V13.01,2013-03-21 03:04:00,
2013-03-20 23:09:00,18.2,11.6,30.07,WNW,300,0.0,40.0,75,21.95,,---,0.00,,VWS V13.01,2013-03-21 03:09:00,
2013-03-20 23:14:00,18.1,11.5,30.07,NW,323,0.0,40.0,75,21.95,,---,0.00,,VWS V13.01,2013-03-21 03:14:00,
2013-03-20 23:19:00,18.1,11.5,30.07,WNW,288,0.0,40.0,75,21.95,,---,0.00,,VWS V13.01,2013-03-21 03:19:00,
2013-03-20 23:24:00,18.1,11.5,30.07,WNW,288,0.0,0.0,75,0.00,CLR,CLR,0.00,0.0,WeatherDisplay:10.37,2013-03-21 03:24:00,
2013-03-20 23:29:00,18.1,11.5,30.07,WNW,294,0.0,40.0,75,21.95,,---,0.00,,VWS V13.01,2013-03-21 03:29:00,
2013-03-20 23:34:00,18.1,11.5,30.07,WNW,294,0.0,40.0,75,21.95,,---,0.00,,VWS V13.01,2013-03-21 03:34:00,
2013-03-20 23:39:00,18.1,11.5,30.07,WNW,299,0.0,0.0,75,0.00,CLR,CLR,0.00,0.0,WeatherDisplay:10.37,2013-03-21 03:39:00,
2013-03-20 23:45:00,18.1,11.5,30.07,WNW,299,0.0,40.0,75,21.95,,---,0.00,,VWS V13.01,2013-03-21 03:45:00,
2013-03-20 23:50:00,18.0,11.4,30.07,WNW,299,0.0,40.0,75,21.95,,---,0.00,,VWS V13.01,2013-03-21 03:50:00,
2013-03-20 23:55:00,18.0,11.4,30.07,WNW,299,0.0,40.0,75,21.95,,---,0.00,,VWS V13.01,2013-03-21 03:55:00,